Location: Recife
(8.0585°S, 34.8848°W)
Time: 21:46:11
(UTC-03:00)

Vanguard 1 Rocket - Pass Details

Date: 19 April 2026
Orbit: 655 x 4212 km, 34.3° (Epoch: 12 May)

Event Time Altitude Azimuth Distance (km) Brightness Sun altitude
Rises 16:28:07 0° 238° (WSW) 4,953 11.9 10.6°
Reaches altitude 10° 16:30:42 10° 240° (WSW) 4,293 11.7 10.0°
Maximum altitude 16:43:32 78° 324° (NW) 2,984 10.3 6.9°
Drops below altitude 10° 17:07:25 10° 48° (NE) 7,294 11.7 1.1°
Sets 17:13:34 0° 49° (NE) 8,438 12.0 -0.4°
